This is the latest recevied weather packets stored in our database for station/object KB1RMA-4. If no packets are shown the sender has not sent any weather packets the latest 10 day(s).
| Time | Temp. | Humidity | Pressure | Rain* | Wind** | Luminosity | Snow |
|---|---|---|---|---|---|---|---|
| 1788100472 | 27.22° C | 47% | 1018.9 hPa | 0 mm | - | 752 W/m² | - |
| 1788100171 | 26.67° C | 49% | 1019 hPa | 0 mm | - | 613 W/m² | - |
| 1788099866 | 26.11° C | 50% | 1019.1 hPa | 0 mm | - | 569 W/m² | - |
| 1788099566 | 25.56° C | 49% | 1019.1 hPa | 0 mm | - | 730 W/m² | - |
| 1788099262 | 25.56° C | 50% | 1019.4 hPa | 0 mm | - | 464 W/m² | - |
| 1788098957 | 25° C | 53% | 1019.4 hPa | 0 mm | - | 632 W/m² | - |
| 1788098652 | 24.44° C | 53% | 1019.2 hPa | 0 mm | - | 344 W/m² | - |
| 1788098351 | 23.89° C | 54% | 1019.1 hPa | 0 mm | - | 229 W/m² | - |
| 1788098047 | 23.89° C | 54% | 1019.4 hPa | 0 mm | - | 177 W/m² | - |
| 1788097742 | 23.89° C | 55% | 1019.3 hPa | 0 mm | - | 203 W/m² | - |
| 1788097437 | 23.33° C | 54% | 1019.1 hPa | 0 mm | - | 182 W/m² | - |
| 1788097133 | 22.78° C | 55% | 1019.4 hPa | 0 mm | - | 153 W/m² | - |
| 1788096828 | 22.78° C | 55% | 1019.8 hPa | 0 mm | - | 123 W/m² | - |
| 1788096523 | 22.78° C | 56% | 1019.5 hPa | 0 mm | - | 135 W/m² | - |
| 1788096219 | 22.78° C | 57% | 1019.5 hPa | 0 mm | - | 137 W/m² | - |
| 1788095919 | 22.22° C | 58% | 1019.7 hPa | 0 mm | - | 189 W/m² | - |
| 1788095619 | 21.67° C | 59% | 1019.8 hPa | 0 mm | - | 186 W/m² | - |
| 1788095314 | 21.11° C | 61% | 1019.6 hPa | 0 mm | - | 152 W/m² | - |
| 1788095009 | 20.56° C | 62% | 1019.6 hPa | 0 mm | - | 122 W/m² | - |
| 1788094708 | 20.56° C | 61% | 1019.9 hPa | 0 mm | - | 122 W/m² | - |
| 1788094404 | 20.56° C | 61% | 1019.8 hPa | 0 mm | - | 102 W/m² | - |
| 1788094101 | 20.56° C | 61% | 1019.9 hPa | 0 mm | - | 101 W/m² | - |
| 1788093796 | 20.56° C | 61% | 1019.8 hPa | 0 mm | - | 128 W/m² | - |
| 1788093493 | 20° C | 64% | 1020.1 hPa | 0 mm | - | 150 W/m² | - |
| 1788093189 | 20° C | 63% | 1019.9 hPa | 0 mm | - | 110 W/m² | - |
* Rain latest hour (hover to see other rain measurements)
** Current wind speed in m/s (hover to see current wind gust speed)